Regional Weather Roundup
Issued by NWS Cleveland, OH

Home | Current Version | Previous Version | Text Only | Print | Product List | Glossary Off
Versions: 1 2 3 4 5 6 7 8 9 10 11 12 13 14 15 16 17 18 19 20 21 22 23 24 25 26 27 28 29 30 31 32 33 34 35 36 37 38 39 40 41 42 43 44 45 46 47 48 49 50

000
ASUS41 KCLE 251810
RWRCLE
OHIO REGIONAL WEATHER ROUNDUP
NATIONAL WEATHER SERVICE CLEVELAND, OH
200 PM EDT THU MAY 25 2017

NOTE: "FAIR" INDICATES FEW OR NO CLOUDS BELOW 12,000 FEET WITH NO
SIGNIFICANT WEATHER AND/OR OBSTRUCTIONS TO VISIBILITY.

OHZ001>008-015>018-024>027-034-035-043-044-251900-
   NORTHWEST OHIO

CITY           SKY/WX    TMP DP  RH WIND       PRES   REMARKS
DEFIANCE       CLOUDY    61  58  90 NW12      29.50S
FINDLAY        CLOUDY    68  57  68 NW13      29.45R
TOLEDO EXPRESS CLOUDY    61  59  93 N13       29.48R
TOLEDO EXEC    CLOUDY    64  59  83 N9        29.48R
LIMA           CLOUDY    67  59  75 N12       29.46R
$$

OHZ009>014-019>023-028>033-038-089-251900-
   NORTHEAST OHIO

CITY           SKY/WX    TMP DP  RH WIND       PRES   REMARKS
CLE-HOPKINS    LGT RAIN  62  58  86 SW5       29.49S FOG
CLE-LAKEFRONT  LGT RAIN  61  57  87 SE5       29.47R FOG
CUY CO. ARPT   CLOUDY    61  59  94 S6        29.48R FOG
LORAIN-ELYRIA  NOT AVBL
ASHTABULA      CLOUDY    59  57  93 S6        29.48S
AKRON-CANTON   LGT RAIN  60  56  86 S7        29.48S
WOOSTER        RAIN      61  56  83 SE5       29.48R
MANSFIELD      CLOUDY    63  55  75 E3        29.47R
YOUNGSTOWN     CLOUDY    59  57  93 SW6       29.48R
$$

OHZ042-051>053-060>062-070>072-077>081-251900-
  SOUTHWEST OHIO

CITY           SKY/WX    TMP DP  RH WIND       PRES   REMARKS
CINC-COVINGTON LGT RAIN  59  58  96 W18G24    29.51R
CINC-LUNKEN    LGT RAIN  62  61  96 W12       29.50R FOG
HAMILTON       CLOUDY    66  65  96 W10G22    29.49R
DAYTON         RAIN      68  57  68 NW12      29.47S
WRIGHT-PAT AFB CLOUDY    69  60  70 NW5       29.46
DAYTON GENERAL CLOUDY    67  58  72 MISG      29.46S
WILMINGTON     CLOUDY    65  56  72 VRB3      29.47R
$$

OHZ036-037-039>041-045>050-054>059-063>069-073>076-082>088-251900-
  CENTRAL AND SOUTHEAST OHIO

CITY           SKY/WX    TMP DP  RH WIND       PRES   REMARKS
COLUMBUS       CLOUDY    66  58  75 S9        29.45S
OSU AIRPORT    PTSUNNY   67  60  78 SW9       29.45R
BOLTON FIELD   LGT RAIN  63  59  88 W6        29.47R
RICKENBACK AFB PTSUNNY   68  57  67 S12       29.45F
NEWARK         CLOUDY    64  57  78 S7        29.46S
MARION         CLOUDY    66  55  67 S3        29.46S
LANCASTER      PTSUNNY   67  57  70 SW9       29.47S
ZANESVILLE     CLOUDY    59  56  89 S9        29.49R
NEW PHILLY     NOT AVBL
$$




USA.gov is the U.S. government's official web portal to all federal, state and local government web resources and services.